User: anonymous
Location: Caltech
(34.1382°N, 118.1253°W)
Time: 00:00:09
(UTC-07:00)
Language:

ASTRO E2 - Orbit

View from above orbital plane
View from above orbital plane
View from above satellite
View from above satellite

Ground track
Ground track

The orbit data is extracted from the following two-line orbital elements,

1 28773U 05025A   14245.70251352  .00003387  00000-0  20250-3 0  3526
2 28773 031.3842 039.1087 0005237 241.5649 233.4521 15.09292789502915
Epoch (UTC): 02 September 2014 16:51:37
Eccentricity: 0.0005237
inclination: 31.3842°
perigee height: 535 km
apogee height: 542 km
right ascension of ascending node: 39.1087°
argument of perigee: 241.5649°
revolutions per day: 15.09292789
mean anomaly at epoch: 233.4521°
orbit number at epoch: 50291

The dashed part of the orbit path shows where the satellite is in the earth's shadow,  

DLR